#timestamp,LO_Frequency,Hit 
1505037615.6,286047003.9,N
1505037635.4,286047001.7,N
1505037655.2,286047004.0,N
1505037675.1,286047000.6,N
1505037676.0,286047000.6,N
1505037695.8,286047000.3,N
1505037715.6,286047000.4,N
1505037735.5,286047000.9,N
1505037755.3,286046998.7,N
1505037775.1,286047000.3,N
1505037795.9,286047000.0,N
1505037815.7,286047000.3,N
1505037835.5,286047000.4,N
1505037855.4,286046996.6,N
1505037875.2,286046999.4,N
1505037895.0,286046998.8,N
1505037895.9,286046998.8,N
1505037915.8,286046998.4,N
1505037935.6,286046997.1,N
1505037955.4,286046994.1,N
1505037975.3,286046997.6,N
1505037995.1,286046999.2,N
1505037996.0,286046999.2,N
1505038015.8,286046999.3,N
1505038035.7,286047002.3,N
1505038055.5,286047000.6,N
1505038075.3,286047001.1,N
1505038095.2,286046999.0,N
1505038115.9,286046998.8,N
1505038135.7,286047001.1,N
1505038155.5,286047000.3,N
1505038175.4,286047000.1,N
1505038195.2,286047001.2,N
1505038215.0,286046998.3,N
1505038215.9,286046998.3,N
1505038235.8,286046998.6,N
1505038255.6,286046998.3,N
1505038275.4,286046996.7,N
1505038295.3,286046996.7,N
1505038315.1,286046995.1,N
1505038335.8,286046995.7,N
1505038355.7,286046994.1,P
1505038375.5,286046997.6,N
1505038395.3,286046995.7,N
1505038415.2,286046991.7,P
1505038435.0,286047002.3,N
1505038435.9,286047002.3,N
1505038455.7,286047000.5,N
1505038475.6,286047000.0,N
1505038495.4,286047002.8,N
1505038515.2,286047003.2,N
1505038535.1,286047005.2,N
1505038536.0,286047005.2,N
1505038555.8,286047006.9,N
1505038575.6,286047001.7,N
1505038595.5,286047004.1,N
1505038615.3,286047004.1,N
1505038635.1,286047001.5,N
1505038655.9,286047003.9,N
1505038675.7,286047001.6,N
1505038695.5,286047002.7,N
1505038715.4,286047001.3,N
1505038735.2,286047004.5,N
1505038755.0,286047003.0,N
1505038755.9,286047003.0,N
1505038775.7,286047006.7,N
1505038795.6,286047006.7,N
1505038815.4,286047004.7,N
1505038835.2,286047008.7,N
1505038855.1,286047003.0,N
1505038856.0,286047003.0,N
1505038875.8,286047005.1,N
1505038895.6,286047005.7,N
1505038915.5,286047009.0,N
1505038935.3,286047005.0,N
1505038955.1,286047003.3,N
1505038975.9,286047003.9,N
1505038995.7,286047005.2,N
1505039015.5,286047008.7,P
1505039035.4,286047002.1,N
1505039055.2,286046998.5,N
1505039075.0,286046996.5,N
1505039075.9,286046996.5,N
1505039095.8,286047000.8,N
1505039115.6,286047000.6,N
1505039135.4,286046998.2,N
1505039155.3,286046998.1,N
1505039175.1,286047002.8,N
1505039176.0,286047002.8,N
1505039195.8,286046999.8,N
1505039215.6,286046999.7,N
1505039235.5,286046998.5,N
1505039255.3,286047001.0,N
1505039275.1,286046999.4,N
1505039295.9,286046999.0,N
1505039315.7,286047000.7,N
1505039335.5,286046995.8,N
1505039355.4,286046992.9,N
1505039375.2,286046991.9,N
1505039395.0,286046993.5,N
1505039395.9,286046993.5,N
1505039415.8,286046993.3,N
1505039435.6,286046997.8,N
1505039455.4,286046998.8,N
1505039475.3,286047000.3,N
1505039495.1,286046999.0,N
1505039496.0,286046999.0,N
1505039515.8,286046999.1,N
1505039535.7,286046997.8,N
1505039555.5,286046997.1,N
1505039575.3,286047002.6,N
1505039595.1,286047000.9,N
1505039615.9,286046998.0,N
1505039635.7,286046997.2,N
1505039655.5,286046997.7,N
1505039675.4,286046995.7,N
1505039695.2,286046993.3,N
1505039715.0,286046997.2,N
1505039715.9,286046997.2,N
1505039735.8,286046996.8,N
1505039755.6,286047002.7,N
1505039775.4,286047003.7,N
1505039795.3,286047001.8,N
1505039815.1,286046998.4,N
1505039816.0,286046998.4,N
1505039835.8,286046997.3,N
1505039855.7,286046999.5,N
1505039875.5,286046995.1,N
1505039895.3,286046991.9,N
1505039915.2,286046993.3,N
1505039935.9,286046995.3,N
1505039955.7,286046994.8,N
1505039975.6,286046996.7,N
1505039995.4,286046997.3,N
1505040015.2,286046998.0,N
1505040035.0,286046996.1,N
1505040036.0,286046996.1,N
1505040055.8,286046995.5,N
1505040075.6,286046999.0,N
1505040095.4,286046995.1,N
1505040115.3,286046993.8,N
1505040135.1,286046995.2,N
1505040155.8,286046994.9,N
1505040175.7,286046995.3,N
1505040195.5,286046999.5,N
1505040215.3,286046999.3,N
1505040235.2,286046995.2,N
1505040255.9,286046995.2,N
1505040275.7,286046997.8,N
1505040295.6,286046998.3,N
1505040315.4,286047002.6,N
1505040335.2,286047002.0,N
1505040355.1,286046999.9,N
1505040356.0,286046999.9,N
1505040375.8,286047002.4,N
1505040395.6,286047000.4,N
1505040415.5,286046999.8,N
1505040435.3,286047002.3,N
1505040455.1,286046998.8,N
1505040475.8,286046998.3,N
1505040495.7,286046999.0,N
1505040515.5,286047000.7,N
1505040535.3,286046998.3,N
1505040555.2,286046997.9,N
1505040575.9,286046998.0,N
1505040595.7,286046999.2,N
1505040615.6,286046998.8,N
1505040635.4,286047001.0,N
1505040655.2,286047000.5,N
1505040675.1,286047000.8,N
1505040676.0,286047000.8,N
1505040695.8,286046999.2,N
1505040715.6,286046996.5,N
1505040735.5,286046999.5,N
1505040755.3,286046999.6,N
1505040775.1,286046999.0,N
1505040795.9,286046998.7,N
1505040815.7,286047000.9,N
1505040835.5,286046998.3,N
1505040855.3,286046998.7,N
1505040875.2,286046998.8,N
1505040895.0,286046996.5,N
1505040895.9,286046996.5,N
1505040915.7,286046999.6,N
1505040935.6,286046996.6,N
1505040955.4,286047000.9,N
1505040975.2,286047000.2,N
1505040995.1,286046999.9,N
1505040996.0,286046999.9,N
1505041015.8,286046998.9,N
1505041035.6,286046997.1,N
1505041055.5,286046996.6,N
1505041075.3,286046997.5,N
1505041095.1,286046997.0,N
1505041115.9,286046996.7,N
1505041135.7,286046995.2,P
1505041155.5,286046996.9,N
1505041175.4,286046998.6,N
1505041195.2,286047000.4,N
